Sheridan, WY

3:58 AM MDT on September 23, 2017 (GMT -0600)
Sheridan County

Weather History for KSHR - January, 2013

Change the Weather History Date:

Tuesday, January 1, 2013

  Actual Average Record
Temperature  
Mean Temperature 22 °F 23 °F  
Max Temperature 35 °F 35 °F 64 °F (1997)
Min Temperature 9 °F 10 °F -28 °F (1928)
Degree Days  
Heating Degree Days 43 42  
Month to date heating degree days 43 42  
Since 1 July heating degree days 2998 3225  
Cooling Degree Days 0 0  
Month to date cooling degree days 0 0  
Year to date cooling degree days 0 0  
Moisture  
Dew Point 20 °F    
Average Humidity 68    
Maximum Humidity 88    
Minimum Humidity 47    
Precipitation  
Precipitation T in 0.02 in 0.29 in (1972)
Month to date precipitation T 0.02  
Year to date precipitation T 0.02  
Sea Level Pressure  
Sea Level Pressure 30.17 in    
Wind  
Wind Speed 11 mph (NW)    
Max Wind Speed 31 mph    
Max Gust Speed 39 mph    
Visibility 5 miles    
Events Fog , Snow    
T = Trace of Precipitation, MM = Missing Value Source: NWS Daily Summary

Daily Weather History Graph

Daily Weather History Graph

Search for Another Location

Airport or City:

Trip Planner

Search our weather history database for the weather conditions in past years. The results will help you decide how hot, cold, wet, or windy it might be!

Date:

Astronomy

Jan. 01, 2013 Rise Set
Actual Time 7:45 AM MST 4:38 PM MST
Civil Twilight 7:11 AM MST 5:11 PM MST
Nautical Twilight 6:35 AM MST 5:48 PM MST
Astronomical Twilight 5:59 AM MST 6:24 PM MST
Moon 9:24 PM MST (1/1) 9:47 AM MST (1/1)
Length of Visible Light 9h 59m
Length of Day
8h 52m
Waning Gibbous, 83% of the Moon is Illuminated
Jan 1
Waning Gibbous
Jan 4
Last Quarter
Jan 11
New
Jan 18
First Quarter
Jan 26
Full

Hourly Weather History & Observations

Time (MST) Temp. Windchill Dew Point Humidity Pressure Visibility Wind Dir Wind Speed Gust Speed Precip Events Conditions
12:53 AM 21.9 °F 15.7 °F 17.1 °F 82% 30.19 in 10.0 mi SSE 4.6 mph - N/A   Overcast
1:53 AM 21.9 °F 17.2 °F 18.0 °F 85% 30.19 in 10.0 mi South 3.5 mph - 0.00 in   Overcast
2:53 AM 21.9 °F 17.2 °F 18.0 °F 85% 30.21 in 10.0 mi South 3.5 mph - N/A   Overcast
3:53 AM 23.0 °F - 17.6 °F 80% 30.06 in 10.0 mi Calm Calm - N/A   Overcast
4:53 AM 23.0 °F - 19.0 °F 85% 30.22 in 10.0 mi Calm Calm - N/A   Overcast
5:53 AM 19.0 °F 13.9 °F 14.0 °F 81% 30.23 in 10.0 mi Variable 3.5 mph - N/A   Partly Cloudy
6:53 AM 15.8 °F 10.2 °F 10.4 °F 79% 30.04 in 10.0 mi SW 3.5 mph - N/A   Mostly Cloudy
7:53 AM 10.0 °F - 5.0 °F 80% 30.23 in 10.0 mi Calm Calm - N/A   Clear
8:53 AM 16.0 °F 10.4 °F 7.0 °F 68% 30.21 in 10.0 mi SSW 3.5 mph - N/A   Scattered Clouds
9:53 AM 24.1 °F 19.7 °F 12.0 °F 60% 30.19 in 10.0 mi South 3.5 mph - N/A   Clear
10:53 AM 27.0 °F - 14.0 °F 58% 30.19 in 10.0 mi Calm Calm - N/A   Clear
11:53 AM 30.9 °F 26.2 °F 18.0 °F 59% 30.14 in 10.0 mi South 4.6 mph - N/A   Partly Cloudy
12:53 PM 34.0 °F - 16.0 °F 48% 30.10 in 10.0 mi Calm Calm - N/A   Overcast
1:53 PM 34.0 °F 29.8 °F 19.9 °F 56% 30.10 in 10.0 mi NE 4.6 mph - N/A   Overcast
2:53 PM 28.9 °F 14.8 °F 24.1 °F 82% 30.18 in 4.0 mi NW 24.2 mph - 0.00 in Snow Light Snow
2:58 PM 30.2 °F 14.9 °F 24.8 °F 80% 30.05 in 2.5 mi NW 31.1 mph 35.7 mph 0.00 in Snow Light Snow
3:07 PM 28.4 °F 12.0 °F 24.8 °F 86% 30.05 in 0.8 mi NW 33.4 mph 41.4 mph 0.00 in Snow Light Snow
3:13 PM 28.4 °F 11.6 °F 26.6 °F 93% 30.05 in 0.5 mi NW 35.7 mph 46.0 mph 0.00 in Fog , Snow Snow
3:25 PM 28.4 °F 12.0 °F 24.8 °F 86% 30.06 in 0.8 mi NW 33.4 mph 42.6 mph 0.00 in Snow Light Snow
3:28 PM 28.4 °F 11.6 °F 24.8 °F 86% 30.07 in 0.5 mi NW 35.7 mph 43.7 mph 0.00 in Fog , Snow Light Snow
3:48 PM 28.4 °F 12.5 °F 24.8 °F 86% 30.06 in 0.8 mi NW 31.1 mph 36.8 mph 0.00 in Snow Light Snow
3:53 PM 28.0 °F 13.0 °F 24.1 °F 85% 30.19 in 1.0 mi NW 26.5 mph 36.8 mph 0.00 in Snow Light Snow
4:17 PM 28.4 °F 15.1 °F 24.8 °F 86% 30.06 in 3.0 mi NW 20.7 mph - 0.00 in Snow Light Snow
4:53 PM 28.0 °F 12.8 °F 24.1 °F 85% 30.20 in 1.8 mi NW 27.6 mph 39.1 mph 0.00 in Snow Light Snow
5:04 PM 28.4 °F 13.8 °F 23.0 °F 80% 30.07 in 3.0 mi NW 25.3 mph 34.5 mph 0.00 in Snow Light Snow
5:53 PM 28.0 °F 13.9 °F 21.9 °F 78% 30.25 in 6.0 mi NW 23.0 mph 35.7 mph 0.00 in   Haze
6:40 PM 26.6 °F 12.4 °F 24.8 °F 93% 30.13 in 2.0 mi NW 21.9 mph 28.8 mph 0.00 in Snow Light Snow
6:53 PM 27.0 °F 11.6 °F 24.1 °F 89% 30.30 in 1.5 mi NW 26.5 mph 33.4 mph 0.00 in Snow Light Snow
7:00 PM 26.6 °F 10.8 °F 24.8 °F 93% 30.14 in 1.2 mi NW 27.6 mph 36.8 mph 0.00 in Snow Light Snow
7:20 PM 26.6 °F 12.0 °F 21.2 °F 80% 30.14 in 2.5 mi NW 23.0 mph 33.4 mph 0.00 in Snow Light Snow
7:46 PM 26.6 °F 13.1 °F 21.2 °F 80% 30.15 in 7.0 mi NNW 19.6 mph 28.8 mph 0.00 in Snow Light Snow
7:53 PM 27.0 °F 13.9 °F 19.9 °F 75% 30.32 in 9.0 mi NNW 18.4 mph - 0.00 in   Overcast
8:53 PM 28.0 °F 15.3 °F 19.0 °F 69% 30.31 in 10.0 mi NW 18.4 mph - N/A   Overcast
9:53 PM 27.0 °F 13.9 °F 21.0 °F 78% 30.31 in 10.0 mi NW 18.4 mph - 0.00 in Snow Light Snow
10:30 PM 26.6 °F 13.4 °F 19.4 °F 74% 30.16 in 4.0 mi NW 18.4 mph - 0.00 in Snow Light Snow
10:50 PM 26.6 °F 11.4 °F 21.2 °F 80% 30.17 in 1.8 mi NW 25.3 mph 31.1 mph 0.00 in Snow Light Snow
10:53 PM 26.1 °F 12.7 °F 21.9 °F 84% 30.30 in 1.2 mi NW 18.4 mph 31.1 mph 0.00 in Snow Light Snow
11:15 PM 26.6 °F 10.0 °F 21.2 °F 80% 30.16 in 0.8 mi NW 31.1 mph 36.8 mph 0.00 in Snow Light Snow
11:19 PM 26.6 °F 11.1 °F 21.2 °F 80% 30.16 in 1.0 mi NW 26.5 mph 39.1 mph 0.00 in Snow Light Snow
11:35 PM 26.6 °F 10.6 °F 21.2 °F 80% 30.16 in 1.0 mi NW 28.8 mph 33.4 mph 0.00 in Snow Light Snow
11:42 PM 26.6 °F 11.4 °F 21.2 °F 80% 30.16 in 1.5 mi WNW 25.3 mph 33.4 mph 0.00 in Snow Light Snow
11:49 PM 26.6 °F 12.7 °F 21.2 °F 80% 30.17 in 3.0 mi WNW 20.7 mph - 0.00 in Snow Light Snow
11:53 PM 27.0 °F 13.9 °F 19.9 °F 75% 30.28 in 5.0 mi WNW 18.4 mph - 0.00 in Snow Light Snow